{"data":{"norad_id":59625,"epoch":"2026-09-19T22:48:53.015904Z","epoch_age_seconds":65816,"freshness":"FRESH","line1":"1 59625U 24081A   26262.95061361  .00002314  00000+0  11966-3 0  9996","line2":"2 59625  97.4946 339.7954 0010230  46.4998 313.7084 15.17219393131905","mean_motion":15.17219393,"eccentricity":0.001023,"inclination_deg":97.4946,"raan_deg":339.7954,"arg_perigee_deg":46.4998,"mean_anomaly_deg":313.7084,"bstar":0.00011966,"rev_number":13190,"period_min":94.9104662545,"perigee_km":507.19797685836,"apogee_km":521.29979838443,"semimajor_km":6892.3858876214,"source":"CELESTRAK","updated_at":"2026-09-20T09:00:33.979154Z"}}